STARLINK-1440 (45657 NORAD) Tracking and Keplerian Element Data

This shows tracking and keplerian element data for the satellite.

Feedback or suggestion? Click here.




ElementValue
Catalog45657
NameSTARLINK-1440
Epoch Orbit552
Epoch Day184.95483876
Epoch Year2020
RAAN21.4004
Inclination52.997
Eccentricity0.0070539
Argument of Perigee156.5073
Mean Anonmoly203.921
Mean Motion16.09734735
Decay Rate0.00426685
L11 45657U 20035A 20184.95483876 .00426685 11551-4 30421-3 0 9993
L22 45657 52.9970 21.4004 0070539 156.5073 203.9210 16.09734735 5527

Live tracking and technical data element details for STARLINK-1440 (NORAD 45657). STARLINK-1440 can be tracked NOW for your location showing map with azimuth and elevation plus other details from your city location.

Track the satellite on the map from your city or location and see movement details for azimuth, elevation, latitude, longitude, range, height, and movement on the map or in text.







IsCatalogInMostPopularTable: catalog: 45657, numindb: 8
Update: records affected: 1



GetName: 45657 STARLINK-1440

Hit Count: updated at: Sat, 04 Jul 2020 03:19:38 GMT